Time,TemperatureF,DewpointF,PressureIn,WindDirection,WindDirectionDegrees,WindSpeedMPH,WindSpeedGustMPH,Humidity,HourlyPrecipIn,Conditions,Clouds,dailyrainin,SoftwareType,DateUTC
2013-03-07 00:04:00,45.2,34.0,30.22,ENE,69,3.0,5.0,66,0.00,,,0.00,weatherlink.com 1.10,2013-03-07 06:04:00,
2013-03-07 00:19:00,45.6,35.0,30.22,ENE,75,4.0,4.0,66,0.00,,,0.00,weatherlink.com 1.10,2013-03-07 06:19:00,
2013-03-07 00:34:00,45.4,35.0,30.21,ENE,62,2.0,3.0,66,0.00,,,0.00,weatherlink.com 1.10,2013-03-07 06:34:00,
2013-03-07 00:49:00,44.9,34.0,30.21,ENE,71,0.0,4.0,67,0.00,,,0.00,weatherlink.com 1.10,2013-03-07 06:49:00,
2013-03-07 01:04:00,44.5,34.0,30.23,ENE,69,0.0,2.0,67,0.00,,,0.00,weatherlink.com 1.10,2013-03-07 07:04:00,
2013-03-07 01:19:00,44.0,35.0,30.24,ENE,69,0.0,0.0,70,0.00,,,0.00,weatherlink.com 1.10,2013-03-07 07:19:00,
2013-03-07 01:35:00,43.1,36.0,30.25,ENE,69,1.0,1.0,75,0.00,,,0.00,weatherlink.com 1.10,2013-03-07 07:35:00,
2013-03-07 01:50:00,42.5,36.0,30.25,ENE,69,0.0,0.0,77,0.00,,,0.00,weatherlink.com 1.10,2013-03-07 07:50:00,
2013-03-07 02:05:00,41.7,36.0,30.25,ENE,69,0.0,0.0,81,0.00,,,0.00,weatherlink.com 1.10,2013-03-07 08:05:00,
2013-03-07 02:20:00,41.0,36.0,30.24,ENE,69,0.0,1.0,81,0.00,,,0.00,weatherlink.com 1.10,2013-03-07 08:20:00,
2013-03-07 02:35:00,40.4,35.0,30.25,ENE,69,0.0,0.0,82,0.00,,,0.00,weatherlink.com 1.10,2013-03-07 08:35:00,
2013-03-07 02:50:00,39.7,35.0,30.25,ENE,69,0.0,0.0,84,0.00,,,0.00,weatherlink.com 1.10,2013-03-07 08:50:00,
2013-03-07 03:05:00,39.2,35.0,30.25,ENE,69,0.0,0.0,85,0.00,,,0.00,weatherlink.com 1.10,2013-03-07 09:05:00,
2013-03-07 03:20:00,38.4,35.0,30.25,ENE,69,0.0,0.0,86,0.00,,,0.00,weatherlink.com 1.10,2013-03-07 09:20:00,
2013-03-07 03:35:00,38.1,35.0,30.25,ENE,69,0.0,0.0,87,0.00,,,0.00,weatherlink.com 1.10,2013-03-07 09:35:00,
2013-03-07 04:05:00,36.9,34.0,30.25,ENE,69,0.0,0.0,90,0.00,,,0.00,weatherlink.com 1.10,2013-03-07 10:05:00,
2013-03-07 04:35:00,37.1,35.0,30.24,ENE,69,0.0,1.0,91,0.00,,,0.00,weatherlink.com 1.10,2013-03-07 10:35:00,
2013-03-07 04:50:00,37.0,34.0,30.24,ENE,69,0.0,0.0,90,0.00,,,0.00,weatherlink.com 1.10,2013-03-07 10:50:00,
2013-03-07 05:05:00,36.5,34.0,30.24,ENE,69,0.0,0.0,89,0.00,,,0.00,weatherlink.com 1.10,2013-03-07 11:05:00,
2013-03-07 05:20:00,36.2,33.0,30.25,ENE,69,0.0,0.0,89,0.00,,,0.00,weatherlink.com 1.10,2013-03-07 11:20:00,
2013-03-07 05:35:00,35.9,33.0,30.25,ENE,69,0.0,0.0,90,0.00,,,0.00,weatherlink.com 1.10,2013-03-07 11:35:00,
2013-03-07 05:50:00,36.0,34.0,30.26,ENE,69,0.0,2.0,91,0.00,,,0.00,weatherlink.com 1.10,2013-03-07 11:50:00,
2013-03-07 06:05:00,35.9,34.0,30.26,ENE,69,0.0,0.0,91,0.00,,,0.00,weatherlink.com 1.10,2013-03-07 12:05:00,
2013-03-07 06:20:00,35.6,34.0,30.26,ENE,69,0.0,0.0,92,0.00,,,0.00,weatherlink.com 1.10,2013-03-07 12:20:00,
2013-03-07 06:35:00,35.5,33.0,30.27,ENE,69,0.0,0.0,92,0.00,,,0.00,weatherlink.com 1.10,2013-03-07 12:35:00,
2013-03-07 06:50:00,35.5,34.0,30.27,ENE,69,0.0,0.0,93,0.00,,,0.00,weatherlink.com 1.10,2013-03-07 12:50:00,
2013-03-07 07:05:00,36.5,35.0,30.29,ENE,69,0.0,0.0,93,0.00,,,0.00,weatherlink.com 1.10,2013-03-07 13:05:00,
2013-03-07 07:20:00,38.7,37.0,30.28,ENE,69,0.0,1.0,93,0.00,,,0.00,weatherlink.com 1.10,2013-03-07 13:20:00,
2013-03-07 07:35:00,41.6,38.0,30.29,ENE,61,2.0,3.0,87,0.00,,,0.00,weatherlink.com 1.10,2013-03-07 13:35:00,
2013-03-07 07:50:00,44.9,39.0,30.30,ENE,63,1.0,5.0,79,0.00,,,0.00,weatherlink.com 1.10,2013-03-07 13:50:00,
2013-03-07 08:05:00,46.9,39.0,30.30,ENE,78,3.0,7.0,74,0.00,,,0.00,weatherlink.com 1.10,2013-03-07 14:05:00,
2013-03-07 08:20:00,48.8,39.0,30.31,ENE,64,4.0,6.0,69,0.00,,,0.00,weatherlink.com 1.10,2013-03-07 14:20:00,
2013-03-07 08:36:00,50.5,39.0,30.32,East,81,5.0,6.0,64,0.00,,,0.00,weatherlink.com 1.10,2013-03-07 14:36:00,
2013-03-07 08:51:00,51.7,39.0,30.32,ENE,65,5.0,7.0,63,0.00,,,0.00,weatherlink.com 1.10,2013-03-07 14:51:00,
2013-03-07 09:06:00,52.4,38.0,30.32,ENE,61,3.0,8.0,59,0.00,,,0.00,weatherlink.com 1.10,2013-03-07 15:06:00,
2013-03-07 09:21:00,53.5,40.0,30.32,ENE,67,5.0,7.0,60,0.00,,,0.00,weatherlink.com 1.10,2013-03-07 15:21:00,
2013-03-07 09:36:00,54.8,39.0,30.32,NE,41,3.0,7.0,56,0.00,,,0.00,weatherlink.com 1.10,2013-03-07 15:36:00,
2013-03-07 09:51:00,56.0,39.0,30.32,ESE,123,3.0,5.0,53,0.00,,,0.00,weatherlink.com 1.10,2013-03-07 15:51:00,
2013-03-07 10:06:00,56.7,39.0,30.32,ENE,74,0.0,7.0,52,0.00,,,0.00,weatherlink.com 1.10,2013-03-07 16:06:00,
2013-03-07 10:21:00,57.4,38.0,30.32,ESE,111,3.0,6.0,48,0.00,,,0.00,weatherlink.com 1.10,2013-03-07 16:21:00,
2013-03-07 10:36:00,60.0,40.0,30.32,ENE,65,3.0,5.0,48,0.00,,,0.00,weatherlink.com 1.10,2013-03-07 16:36:00,
2013-03-07 10:51:00,60.6,38.0,30.31,ESE,107,0.0,7.0,43,0.00,,,0.00,weatherlink.com 1.10,2013-03-07 16:51:00,
2013-03-07 11:06:00,62.5,41.0,30.31,NE,36,4.0,4.0,45,0.00,,,0.00,weatherlink.com 1.10,2013-03-07 17:06:00,
2013-03-07 11:21:00,61.3,37.0,30.31,NE,41,1.0,8.0,40,0.00,,,0.00,weatherlink.com 1.10,2013-03-07 17:21:00,
2013-03-07 11:36:00,63.3,36.0,30.30,East,91,1.0,8.0,37,0.00,,,0.00,weatherlink.com 1.10,2013-03-07 17:36:00,
2013-03-07 11:51:00,65.1,37.0,30.29,NNW,342,2.0,6.0,36,0.00,,,0.00,weatherlink.com 1.10,2013-03-07 17:51:00,
2013-03-07 12:06:00,66.0,40.0,30.29,NNE,26,2.0,5.0,38,0.00,,,0.00,weatherlink.com 1.10,2013-03-07 18:06:00,
2013-03-07 12:21:00,64.0,36.0,30.28,NNE,31,3.0,5.0,36,0.00,,,0.00,weatherlink.com 1.10,2013-03-07 18:21:00,
2013-03-07 12:36:00,63.7,36.0,30.27,North,355,2.0,4.0,36,0.00,,,0.00,weatherlink.com 1.10,2013-03-07 18:36:00,
2013-03-07 12:51:00,63.1,38.0,30.27,ENE,72,3.0,4.0,39,0.00,,,0.00,weatherlink.com 1.10,2013-03-07 18:51:00,
2013-03-07 13:06:00,62.2,37.0,30.25,NE,39,0.0,3.0,40,0.00,,,0.00,weatherlink.com 1.10,2013-03-07 19:06:00,
2013-03-07 13:22:00,63.2,37.0,30.26,NE,36,2.0,5.0,38,0.00,,,0.00,weatherlink.com 1.10,2013-03-07 19:22:00,
2013-03-07 13:36:00,63.2,36.0,30.25,NNW,340,3.0,6.0,36,0.00,,,0.00,weatherlink.com 1.10,2013-03-07 19:36:00,
2013-03-07 14:06:00,63.4,36.0,30.24,ENE,67,0.0,3.0,37,0.00,,,0.00,weatherlink.com 1.10,2013-03-07 20:06:00,
2013-03-07 14:21:00,65.4,40.0,30.23,NNE,22,1.0,4.0,40,0.00,,,0.00,weatherlink.com 1.10,2013-03-07 20:21:00,
2013-03-07 14:36:00,66.4,39.0,30.22,NNE,24,0.0,3.0,37,0.00,,,0.00,weatherlink.com 1.10,2013-03-07 20:36:00,
2013-03-07 14:51:00,67.5,37.0,30.23,ENE,61,1.0,2.0,33,0.00,,,0.00,weatherlink.com 1.10,2013-03-07 20:51:00,
2013-03-07 15:06:00,65.2,39.0,30.22,East,90,2.0,3.0,38,0.00,,,0.00,weatherlink.com 1.10,2013-03-07 21:06:00,
2013-03-07 15:21:00,65.3,38.0,30.22,SW,236,0.0,4.0,36,0.00,,,0.00,weatherlink.com 1.10,2013-03-07 21:21:00,
2013-03-07 15:36:00,65.1,37.0,30.21,South,169,2.0,4.0,35,0.00,,,0.00,weatherlink.com 1.10,2013-03-07 21:36:00,
2013-03-07 15:51:00,65.1,36.0,30.21,SSE,159,0.0,3.0,34,0.00,,,0.00,weatherlink.com 1.10,2013-03-07 21:51:00,
2013-03-07 16:06:00,67.4,36.0,30.21,WSW,239,2.0,4.0,32,0.00,,,0.00,weatherlink.com 1.10,2013-03-07 22:06:00,
2013-03-07 16:21:00,67.3,36.0,30.21,West,275,0.0,4.0,32,0.00,,,0.00,weatherlink.com 1.10,2013-03-07 22:21:00,
2013-03-07 16:36:00,67.9,36.0,30.21,West,275,0.0,2.0,31,0.00,,,0.00,weatherlink.com 1.10,2013-03-07 22:36:00,
2013-03-07 16:51:00,66.1,35.0,30.21,ESE,105,1.0,3.0,32,0.00,,,0.00,weatherlink.com 1.10,2013-03-07 22:51:00,
2013-03-07 17:06:00,65.9,37.0,30.21,ESE,116,1.0,2.0,34,0.00,,,0.00,weatherlink.com 1.10,2013-03-07 23:06:00,
2013-03-07 17:21:00,64.5,35.0,30.20,ESE,116,0.0,1.0,33,0.00,,,0.00,weatherlink.com 1.10,2013-03-07 23:21:00,
2013-03-07 17:36:00,64.9,36.0,30.20,ESE,116,0.0,0.0,35,0.00,,,0.00,weatherlink.com 1.10,2013-03-07 23:36:00,
2013-03-07 17:52:00,64.2,37.0,30.21,ESE,116,0.0,0.0,37,0.00,,,0.00,weatherlink.com 1.10,2013-03-07 23:52:00,
2013-03-07 18:06:00,61.3,37.0,30.20,ESE,116,0.0,0.0,40,0.00,,,0.00,weatherlink.com 1.10,2013-03-08 00:06:00,
2013-03-07 18:22:00,59.1,38.0,30.21,ESE,116,0.0,0.0,46,0.00,,,0.00,weatherlink.com 1.10,2013-03-08 00:22:00,
2013-03-07 18:37:00,56.7,40.0,30.21,ESE,116,0.0,0.0,54,0.00,,,0.00,weatherlink.com 1.10,2013-03-08 00:37:00,
2013-03-07 18:52:00,54.1,39.0,30.22,ESE,116,0.0,0.0,56,0.00,,,0.00,weatherlink.com 1.10,2013-03-08 00:52:00,
2013-03-07 19:07:00,52.7,39.0,30.22,ESE,116,0.0,0.0,59,0.00,,,0.00,weatherlink.com 1.10,2013-03-08 01:07:00,
2013-03-07 19:22:00,51.7,39.0,30.22,ESE,116,0.0,0.0,63,0.00,,,0.00,weatherlink.com 1.10,2013-03-08 01:22:00,
2013-03-07 19:37:00,50.5,40.0,30.22,ESE,116,0.0,0.0,67,0.00,,,0.00,weatherlink.com 1.10,2013-03-08 01:37:00,
2013-03-07 19:52:00,49.5,40.0,30.22,SSE,148,1.0,2.0,69,0.00,,,0.00,weatherlink.com 1.10,2013-03-08 01:52:00,
2013-03-07 20:07:00,49.2,39.0,30.21,SSE,148,0.0,0.0,67,0.00,,,0.00,weatherlink.com 1.10,2013-03-08 02:07:00,
2013-03-07 20:22:00,49.0,39.0,30.21,SSE,148,0.0,0.0,68,0.00,,,0.00,weatherlink.com 1.10,2013-03-08 02:22:00,
2013-03-07 20:37:00,48.1,39.0,30.22,SSE,148,0.0,0.0,71,0.00,,,0.00,weatherlink.com 1.10,2013-03-08 02:37:00,
2013-03-07 20:52:00,47.3,39.0,30.23,SSE,148,0.0,0.0,73,0.00,,,0.00,weatherlink.com 1.10,2013-03-08 02:52:00,
2013-03-07 21:07:00,47.0,40.0,30.23,SSE,148,0.0,0.0,76,0.00,,,0.00,weatherlink.com 1.10,2013-03-08 03:07:00,
2013-03-07 21:22:00,46.8,40.0,30.23,SSE,148,0.0,0.0,78,0.00,,,0.00,weatherlink.com 1.10,2013-03-08 03:22:00,
2013-03-07 21:37:00,46.3,40.0,30.23,SSE,148,0.0,0.0,80,0.00,,,0.00,weatherlink.com 1.10,2013-03-08 03:37:00,
2013-03-07 21:52:00,45.7,41.0,30.23,SSE,148,0.0,0.0,82,0.00,,,0.00,weatherlink.com 1.10,2013-03-08 03:52:00,
2013-03-07 22:07:00,45.4,41.0,30.23,SSE,148,0.0,0.0,83,0.00,,,0.00,weatherlink.com 1.10,2013-03-08 04:07:00,
2013-03-07 22:37:00,44.2,41.0,30.23,SSE,148,0.0,0.0,87,0.00,,,0.00,weatherlink.com 1.10,2013-03-08 04:37:00,
2013-03-07 22:52:00,44.0,40.0,30.22,SSE,148,0.0,0.0,87,0.00,,,0.00,weatherlink.com 1.10,2013-03-08 04:52:00,
2013-03-07 23:07:00,43.4,40.0,30.23,SSE,148,0.0,0.0,87,0.00,,,0.00,weatherlink.com 1.10,2013-03-08 05:07:00,
2013-03-07 23:22:00,42.9,40.0,30.23,SSE,148,0.0,0.0,88,0.00,,,0.00,weatherlink.com 1.10,2013-03-08 05:22:00,
2013-03-07 23:37:00,42.6,40.0,30.23,SSE,148,1.0,1.0,91,0.00,,,0.00,weatherlink.com 1.10,2013-03-08 05:37:00,
2013-03-07 23:52:00,42.6,40.0,30.23,SSE,148,0.0,1.0,91,0.00,,,0.00,weatherlink.com 1.10,2013-03-08 05:52:00,